[Iaude] MPEC U128: 2016 UY56 [a=1.32,e=0.45,i=0.9,H=23.8]

mpec at si.edu mpec at si.edu
Mon Oct 31 18:39:38 EDT 2016


M.P.E.C. 2016-U128                               Issued 2016 Oct. 31, 22:36 UT
 
     The Minor Planet Electronic Circulars contain information on unusual
         minor planets and routine data on comets.  They are published
    on behalf of Division F of the International Astronomical Union by the
          Minor Planet Center, Smithsonian Astrophysical Observatory,
                          Cambridge, MA 02138, U.S.A.

             Prepared using the Tamkin Foundation Computer Network

                              MPC at CFA.HARVARD.EDU
            URL http://www.minorplanetcenter.net/    ISSN 1523-6714


                                   2016 UY56
 
Observations:
     K16U56Y* C2016 10 29.26763 02 38 34.30 +18 57 24.0          20.1 VqEU128703
     K16U56Y  C2016 10 29.27664 02 38 33.38 +18 57 22.6          20.1 VqEU128703
     K16U56Y  C2016 10 29.28114 02 38 32.91 +18 57 22.6          19.9 VqEU128703
     K16U56Y  C2016 10 29.30679 02 38 29.87 +18 57 17.5          19.9 VqEU128703
     K16U56Y  C2016 10 29.31215 02 38 29.20 +18 57 16.9          20.2 VqEU128703
     K16U56Y  C2016 10 29.32287 02 38 27.91 +18 57 10.0          20.6 VqEU128703
     K16U56Y KC2016 10 29.42480 02 38 16.16 +18 56 53.9          20.6 RoEU128291
     K16U56Y KC2016 10 29.42908 02 38 15.69 +18 56 52.9          20.6 RoEU128291
     K16U56Y KC2016 10 29.43337 02 38 15.20 +18 56 51.9          20.8 RoEU128291
     K16U56Y  C2016 10 29.50093 02 38 07.87 +18 56 32.9          19.7 VqEU128G96
     K16U56Y  C2016 10 29.50543 02 38 07.45 +18 56 32.2          19.8 VqEU128G96
     K16U56Y  C2016 10 29.50986 02 38 06.95 +18 56 31.3          19.6 VqEU128G96
     K16U56Y  C2016 10 29.51394 02 38 06.51 +18 56 28.5          19.7 VqEU128G96
     K16U56Y KC2016 10 29.83689 02 37 40.75 +18 55 23.6          19.7 RoEU128K51
     K16U56Y KC2016 10 29.83832 02 37 40.59 +18 55 23.4          19.8 RoEU128K51
     K16U56Y KC2016 10 29.83975 02 37 40.43 +18 55 23.3          19.8 RoEU128K51
     K16U56Y KC2016 10 29.97137 02 37 24.97 +18 55 03.9          20.1 RqEU128104
     K16U56Y KC2016 10 29.97730 02 37 24.25 +18 55 02.4          20.0 RqEU128104
     K16U56Y KC2016 10 29.98250 02 37 23.62 +18 55 01.8          20.1 RqEU128104
     K16U56Y  C2016 10 30.17264 02 37 07.22 +18 54 30.0          20.6 VqEU128I52
     K16U56Y  C2016 10 30.17619 02 37 06.79 +18 54 29.9          19.8 VqEU128I52
     K16U56Y KC2016 10 30.17823 02 37 05.68 +18 54 25.4          20.1 RqEU128H36
     K16U56Y  C2016 10 30.17942 02 37 06.40 +18 54 29.2          20.0 VqEU128I52
     K16U56Y  C2016 10 30.18207 02 37 06.09 +18 54 28.7          20.4 VqEU128I52
     K16U56Y KC2016 10 30.19213 02 37 03.95 +18 54 23.5          20.6 RqEU128H36
     K16U56Y KC2016 10 30.20602 02 37 02.17 +18 54 21.2          20.1 RqEU128H36
     K16U56Y  C2016 10 30.40494 02 36 37.66 +18 53 45.8          20.5 RoEU128926
     K16U56Y  C2016 10 30.41985 02 36 35.76 +18 53 41.6          20.6 RoEU128926
     K16U56Y  C2016 10 30.42991 02 36 34.50 +18 53 38.3          20.5 RoEU128926
     K16U56Y  C2016 10 31.34512 02 34 52.98 +18 50 08.6          19.3 VqEU128I52
     K16U56Y  C2016 10 31.34808 02 34 52.51 +18 50 07.5          19.4 VqEU128I52
     K16U56Y  C2016 10 31.35163 02 34 51.96 +18 50 06.3          19.6 VqEU128I52
     K16U56Y  C2016 10 31.35486 02 34 51.51 +18 50 05.6          19.9 VqEU128I52
     K16U56Y  C2016 10 31.86036 02 33 52.73 +18 47 30.3                qEU128246
     K16U56Y  C2016 10 31.86116 02 33 52.53 +18 47 29.9                qEU128246
     K16U56Y  C2016 10 31.86181 02 33 52.30 +18 47 29.6                qEU128246
     K16U56Y  C2016 10 31.86231 02 33 52.28 +18 47 28.9                qEU128246
 
Observer details:
104 San Marcello Pistoiese.  Observers P. Bacci, M. Maestripieri.  Measurers
    P. Bacci, L. Tesi, G. Fagioli.  0.60-m f/4 reflector + CCD.
246 Klet Observatory-KLENOT.  Observers M. Tichy, J. Ticha.  Measurer M. Tichy.
    1.06-m KLENOT Telescope + CCD.
291 LPL/Spacewatch II.  Observer M. T. Read.  1.8-m f/2.7 reflector + CCD.
703 Catalina Sky Survey.  Observer R. G. Matheny.  Measurers E. J. Christensen,
    D. C. Fuls, A. R. Gibbs, A. D. Grauer, J. A. Johnson, R. A. Kowalski,
    S. M. Larson, G. J. Leonard, R. G. Matheny, R. L. Seaman, F. C. Shelly.
    0.68-m Schmidt + CCD.
926 Tenagra II Observatory.  Observers M. Schwartz, P. R. Holvorcem.  Measurer
    M. Schwartz.  0.81-m f/7 Ritchey-Chretien + CCD.
G96 Mt. Lemmon Survey.  Observer D. C. Fuls.  Measurers E. J. Christensen,
    D. C. Fuls, A. R. Gibbs, A. D. Grauer, J. A. Johnson, R. A. Kowalski,
    S. M. Larson, G. J. Leonard, R. G. Matheny, R. L. Seaman, F. C. Shelly.
    1.5-m reflector + 10K CCD.
H36 Sandlot Observatory, Scranton.  Observer G. Hug.  0.56-m reflector + CCD.
I52 Steward Observatory, Mt. Lemmon Station.  Observers J. A. Johnson,
    G. J. Leonard.  Measurers E. J. Christensen, D. C. Fuls, A. R. Gibbs,
    A. D. Grauer, J. A. Johnson, R. A. Kowalski, S. M. Larson, G. J. Leonard,
    R. G. Matheny, R. L. Seaman, F. C. Shelly.  1.0-m reflector + CCD.
K51 Osservatorio del Celado, Castello Tesino.  Observers G. Favero, R. Furgoni.
    Measurer R. Furgoni.  0.80-m f/4 reflector + CCD.
 
Orbital elements:
2016 UY56                                                Earth MOID = 0.0028 AU
Epoch 2016 July 31.0 TT = JDT 2457600.5                 MPC
M 254.40701              (2000.0)            P               Q
n   0.64740516     Peri.  250.59805     -0.71174485     -0.70229646
a   1.3233822      Node   244.78747     +0.65018222     -0.65106405
e   0.4458359      Incl.    0.89326     +0.26586152     -0.28791541
P   1.52           H   23.8           G   0.15           U   8
Residuals in seconds of arc
161029 703  1.3-  0.2-    161029 K51  0.3-  0.3+    161030 926  0.0   0.5+
161029 703  0.5+  0.3-    161029 K51  0.3-  0.3+    161030 926  0.2-  0.5+
161029 703  1.2+  0.4+    161029 K51  0.3-  0.4+    161030 926  0.1-  0.1+
161029 703  0.5+  0.6-    161029 104  0.1+  0.0     161031 I52  0.6+  0.5+
161029 703  0.1-  0.3-    161029 104  0.2+  0.3-    161031 I52  0.0   0.3+
161029 703 (0.6-  5.3-)   161029 104  0.2+  0.2+    161031 I52  0.6-  0.1+
161029 291  0.4-  0.2-    161030 I52  0.2-  0.3+    161031 I52  0.4-  0.3+
161029 291  0.2-  0.2-    161030 I52  0.3-  0.6+    161031 246 (2.4+  0.1-)
161029 291  0.3-  0.1-    161030 H36  0.7+  0.0     161031 246  1.2+  0.3-
161029 G96  0.3+  0.4-    161030 I52  0.3-  0.3+    161031 246  0.7-  0.5-
161029 G96  1.0+  0.2+    161030 I52  0.2-  0.1+    161031 246  0.0   1.1-
161029 G96  0.4+  0.5+    161030 H36  0.5+  0.3+
161029 G96  0.2+  1.1-    161030 H36  0.2-  0.2+

Ephemeris:
2016 UY56                a,e,i = 1.32, 0.45, 1                   q = 0.7334
Date    TT    R. A. (2000) Decl.     Delta      r     Elong.  Phase     V
2016 10 01    02 45 49.6 +18 21 18   0.3890  1.3336   143.3    26.6    23.6
...
2016 10 16    02 48 29.1 +19 01 30   0.2496  1.2308   157.3    18.2    22.2
...
2016 10 24    02 44 39.8 +19 05 57   0.1834  1.1734   165.9    11.9    21.2
...
2016 10 30    02 37 22.1 +18 55 25   0.1372  1.1294   173.0     6.1    20.2
2016 10 31    02 35 34.3 +18 51 49   0.1298  1.1220   174.2     5.1    20.0
2016 11 01    02 33 33.0 +18 47 29   0.1225  1.1146   175.2     4.2    19.9
...
2016 11 07    02 13 56.4 +17 56 07   0.07988 1.0700   171.4     8.0    19.0
...
2016 11 15    00 27 59.9 +10 47 44   0.02887 1.0105   137.4    41.5    17.7
...
2016 11 30    16 02 43.1 -21 19 27   0.08393 0.9027     5.2   174.4

A. U. Tomatic                (C) Copyright 2016 MPC           M.P.E.C. 2016-U128




More information about the Iaude mailing list